BSAT-3A

Last updated on Mon Oct 14 2024 00:02:38 GMT+0000 (Coordinated Universal Time)

1 32019U 07036B 24287.51368874 -.00000352 00000+0 00000+0 0 9995 2 32019 0.0343 137.7866 0004589 79.1954 100.3862 1.00272043 44407
UTC large
Height (km)
Speed (km/s)
/
Latitude / Longitude
Inclination (degrees)
Orbital Period (minutes)
Azimuth
Elevation
Range (km)
Doppler Factor

Next 0 passes for location: London (51.5072 / 0.1276)

Sorry there are no passes over London.